TimeCDT,TemperatureF,Dew PointF,Humidity,Sea Level PressureIn,VisibilityMPH,Wind Direction,Wind SpeedMPH,Gust SpeedMPH,PrecipitationIn,Events,Conditions,WindDirDegrees,DateUTC
12:53 AM,46.9,39.9,77,30.26,10.0,NNW,4.6,-,N/A,,Partly Cloudy,330,2014-03-27 05:53:00
1:53 AM,48.0,39.9,74,30.22,10.0,NE,3.5,-,N/A,,Mostly Cloudy,50,2014-03-27 06:53:00
2:53 AM,48.9,41.0,74,30.20,10.0,Calm,Calm,-,N/A,,Overcast,0,2014-03-27 07:53:00
3:53 AM,50.0,43.0,77,30.17,10.0,Calm,Calm,-,N/A,,Overcast,0,2014-03-27 08:53:00
4:53 AM,55.0,46.9,74,30.15,10.0,SE,9.2,-,N/A,,Overcast,140,2014-03-27 09:53:00
5:53 AM,57.0,48.9,74,30.16,10.0,SE,8.1,-,N/A,,Overcast,140,2014-03-27 10:53:00
6:53 AM,55.9,48.9,77,30.16,10.0,SE,9.2,-,N/A,,Scattered Clouds,140,2014-03-27 11:53:00
7:53 AM,57.9,50.0,75,30.17,10.0,SE,9.2,-,N/A,,Clear,140,2014-03-27 12:53:00
8:53 AM,62.1,48.0,60,30.18,10.0,SE,15.0,25.3,0.00,Rain,Light Rain,130,2014-03-27 13:53:00
9:53 AM,64.0,46.9,54,30.19,10.0,SE,17.3,26.5,0.00,,Clear,130,2014-03-27 14:53:00
10:53 AM,66.0,50.0,56,30.20,10.0,SE,18.4,25.3,N/A,,Scattered Clouds,130,2014-03-27 15:53:00
11:53 AM,66.9,51.1,57,30.19,10.0,SE,17.3,25.3,N/A,,Overcast,140,2014-03-27 16:53:00
12:53 PM,70.0,53.1,55,30.17,10.0,SE,18.4,26.5,N/A,,Scattered Clouds,130,2014-03-27 17:53:00
1:53 PM,69.1,55.0,61,30.15,10.0,ESE,18.4,25.3,N/A,,Mostly Cloudy,120,2014-03-27 18:53:00
2:05 PM,68.0,55.9,65,30.14,10.0,SE,16.1,27.6,N/A,,Overcast,130,2014-03-27 19:05:00
2:18 PM,68.0,55.9,65,30.14,10.0,SE,19.6,26.5,N/A,,Overcast,140,2014-03-27 19:18:00
2:53 PM,68.0,57.0,68,30.13,10.0,SE,16.1,24.2,N/A,,Overcast,140,2014-03-27 19:53:00
3:53 PM,68.0,57.9,70,30.11,10.0,SE,15.0,23.0,N/A,,Overcast,140,2014-03-27 20:53:00
4:53 PM,66.9,57.0,70,30.09,10.0,SE,15.0,23.0,N/A,,Overcast,140,2014-03-27 21:53:00
5:10 PM,66.9,57.0,70,30.08,10.0,SE,16.1,23.0,N/A,,Overcast,140,2014-03-27 22:10:00
5:53 PM,64.9,57.9,78,30.08,10.0,SE,15.0,20.7,N/A,,Overcast,140,2014-03-27 22:53:00
6:53 PM,64.0,59.0,84,30.06,10.0,SE,17.3,24.2,N/A,,Overcast,130,2014-03-27 23:53:00
7:08 PM,63.0,60.1,90,30.05,8.0,SE,15.0,25.3,N/A,,Overcast,130,2014-03-28 00:08:00
7:53 PM,63.0,61.0,93,30.08,7.0,SE,13.8,-,N/A,,Overcast,140,2014-03-28 00:53:00
8:53 PM,63.0,61.0,93,30.07,10.0,ESE,11.5,-,N/A,,Overcast,120,2014-03-28 01:53:00
9:39 PM,63.0,62.1,97,30.06,8.0,SE,12.7,-,0.03,,Overcast,130,2014-03-28 02:39:00
9:53 PM,63.0,62.1,97,30.06,6.0,SE,12.7,-,0.04,,Overcast,130,2014-03-28 02:53:00
10:08 PM,63.0,62.1,97,30.06,9.0,ESE,10.4,-,N/A,,Overcast,120,2014-03-28 03:08:00
10:53 PM,64.0,62.1,93,30.05,9.0,SE,15.0,21.9,N/A,,Overcast,130,2014-03-28 03:53:00
11:53 PM,64.0,63.0,96,30.04,7.0,SE,12.7,19.6,0.05,,Overcast,140,2014-03-28 04:53:00